Grafton, ND

2:36 PM CDT on July 28, 2017 (GMT -0500)
Grafton Municipal

Weather History for KGAF - October, 2013

Change the Weather History Date:

Tuesday, October 1, 2013

  Actual Average Record
Temperature  
Mean Temperature 56 °F -  
Max Temperature 66 °F 67 °F 90 °F (1992)
Min Temperature 46 °F 40 °F 21 °F (1974)
Degree Days  
Heating Degree Days 9    
Growing Degree Days 6 (Base 50)    
Moisture  
Dew Point 41 °F    
Average Humidity 60    
Maximum Humidity 100    
Minimum Humidity 30    
Precipitation  
Precipitation 0.00 in - - ()
Sea Level Pressure  
Sea Level Pressure 29.68 in    
Wind  
Wind Speed 17 mph (WSW)    
Max Wind Speed 36 mph    
Max Gust Speed 46 mph    
Visibility 10 miles    
Events Rain    
Averages and records for this station are not official NWS values.
T = Trace of Precipitation, MM = Missing Value Source: NWS Daily Summary

Daily Weather History Graph

Daily Weather History Graph

Search for Another Location

Airport or City:

Trip Planner

Search our weather history database for the weather conditions in past years. The results will help you decide how hot, cold, wet, or windy it might be!

Date:

Astronomy

Oct. 01, 2013 Rise Set
Actual Time 7:29 AM CDT 7:07 PM CDT
Civil Twilight 6:58 AM CDT 7:39 PM CDT
Nautical Twilight 6:21 AM CDT 8:15 PM CDT
Astronomical Twilight 5:44 AM CDT 8:52 PM CDT
Moon 3:51 AM CDT (10/1) 5:23 PM CDT (10/1)
Length of Visible Light 12h 40m
Length of Day
11h 38m
Waning Crescent, 12% of the Moon is Illuminated
Oct 1
Waning Crescent
Oct 4
New
Oct 11
First Quarter
Oct 18
Full
Oct 26
Last Quarter

Hourly Weather History & Observations

Time (CDT) Temp. Windchill Dew Point Humidity Pressure Visibility Wind Dir Wind Speed Gust Speed Precip Events Conditions
12:15 AM 62.6 °F - 50.0 °F 63% 29.49 in 10.0 mi NW 20.7 mph 27.6 mph N/A   Scattered Clouds
12:35 AM 59.0 °F - 51.8 °F 77% 29.50 in 10.0 mi WNW 15.0 mph 25.3 mph N/A   Mostly Cloudy
12:55 AM 57.2 °F - 53.6 °F 88% 29.50 in 9.0 mi NW 16.1 mph 20.7 mph N/A Rain Light Rain
1:15 AM 55.4 °F - 53.6 °F 94% 29.52 in 10.0 mi NW 12.7 mph 18.4 mph N/A   Partly Cloudy
1:35 AM 55.4 °F - 51.8 °F 88% 29.51 in 10.0 mi WNW 9.2 mph - N/A   Clear
1:55 AM 53.6 °F - 51.8 °F 94% 29.52 in 10.0 mi West 6.9 mph - N/A   Clear
2:15 AM 51.8 °F - 50.0 °F 94% 29.53 in 10.0 mi WSW 8.1 mph - N/A   Clear
2:35 AM 51.8 °F - 51.8 °F 100% 29.53 in 10.0 mi SW 9.2 mph - N/A   Clear
2:55 AM 51.8 °F - 50.0 °F 94% 29.53 in 10.0 mi SW 6.9 mph - N/A   Clear
3:15 AM 53.6 °F - 50.0 °F 88% 29.53 in 10.0 mi WSW 10.4 mph - N/A   Clear
3:35 AM 51.8 °F - 50.0 °F 94% 29.54 in 10.0 mi WSW 11.5 mph - N/A   Clear
3:55 AM 51.8 °F - 48.2 °F 88% 29.54 in 10.0 mi WSW 12.7 mph - N/A   Clear
4:15 AM 51.8 °F - 48.2 °F 88% 29.55 in 10.0 mi WSW 11.5 mph - N/A   Clear
4:35 AM 50.0 °F - 46.4 °F 87% 29.55 in 10.0 mi WSW 11.5 mph - N/A   Clear
4:55 AM 51.8 °F - 46.4 °F 82% 29.55 in 10.0 mi West 12.7 mph - N/A   Clear
5:15 AM 50.0 °F - 44.6 °F 82% 29.56 in 10.0 mi West 11.5 mph - N/A   Clear
5:35 AM 51.8 °F - 44.6 °F 76% 29.56 in 10.0 mi West 12.7 mph - N/A   Clear
5:55 AM 51.8 °F - 42.8 °F 71% 29.57 in 10.0 mi West 15.0 mph - N/A   Clear
6:15 AM 51.8 °F - 41.0 °F 67% 29.58 in 10.0 mi West 13.8 mph - N/A   Clear
6:35 AM 50.0 °F - 41.0 °F 71% 29.59 in 10.0 mi West 12.7 mph - N/A   Clear
6:55 AM 51.8 °F - 41.0 °F 67% 29.59 in 10.0 mi West 15.0 mph 20.7 mph N/A   Clear
7:15 AM 50.0 °F - 39.2 °F 66% 29.60 in 10.0 mi West 15.0 mph 23.0 mph N/A   Clear
7:35 AM 50.0 °F - 39.2 °F 66% 29.61 in 10.0 mi West 15.0 mph - N/A   Clear
7:55 AM 50.0 °F - 39.2 °F 66% 29.61 in 10.0 mi West 17.3 mph 21.9 mph N/A   Clear
8:15 AM 51.8 °F - 39.2 °F 62% 29.62 in 10.0 mi West 19.6 mph 25.3 mph N/A   Clear
8:35 AM 53.6 °F - 41.0 °F 62% 29.63 in 10.0 mi West 20.7 mph 27.6 mph N/A   Clear
8:55 AM 53.6 °F - 41.0 °F 62% 29.64 in 10.0 mi West 19.6 mph 27.6 mph N/A   Clear
9:15 AM 55.4 °F - 39.2 °F 54% 29.64 in 10.0 mi West 21.9 mph 28.8 mph N/A   Clear
9:35 AM 55.4 °F - 39.2 °F 54% 29.65 in 10.0 mi West 21.9 mph 33.4 mph N/A   Clear
9:55 AM 57.2 °F - 39.2 °F 51% 29.66 in 10.0 mi West 26.5 mph 33.4 mph N/A   Clear
10:15 AM 57.2 °F - 41.0 °F 55% 29.67 in 10.0 mi West 25.3 mph 33.4 mph N/A   Clear
10:35 AM 59.0 °F - 39.2 °F 48% 29.67 in 10.0 mi West 28.8 mph 36.8 mph N/A   Clear
10:55 AM 59.0 °F - 39.2 °F 48% 29.68 in 10.0 mi West 28.8 mph 39.1 mph N/A   Clear
11:15 AM 59.0 °F - 39.2 °F 48% 29.68 in 10.0 mi West 28.8 mph 40.3 mph N/A   Clear
11:35 AM 60.8 °F - 39.2 °F 45% 29.68 in 10.0 mi WSW 26.5 mph 35.7 mph N/A   Clear
11:55 AM 62.6 °F - 39.2 °F 42% 29.68 in 10.0 mi WSW 25.3 mph 36.8 mph N/A   Clear
12:15 PM 62.6 °F - 39.2 °F 42% 29.68 in 10.0 mi WSW 28.8 mph 38.0 mph N/A   Clear
12:35 PM 62.6 °F - 39.2 °F 42% 29.69 in 10.0 mi West 26.5 mph 36.8 mph N/A   Clear
12:55 PM 64.4 °F - 39.2 °F 40% 29.69 in 10.0 mi West 29.9 mph 39.1 mph N/A   Clear
1:15 PM 64.4 °F - 39.2 °F 40% 29.70 in 10.0 mi West 29.9 mph 38.0 mph N/A   Clear
1:35 PM 64.4 °F - 37.4 °F 37% 29.70 in 10.0 mi West 32.2 mph 44.9 mph N/A   Clear
1:55 PM 64.4 °F - 37.4 °F 37% 29.70 in 10.0 mi West 26.5 mph 46.0 mph N/A   Clear
2:15 PM 66.2 °F - 39.2 °F 37% 29.71 in 10.0 mi WSW 31.1 mph 38.0 mph N/A   Clear
2:35 PM 66.2 °F - 37.4 °F 35% 29.71 in 10.0 mi WSW 28.8 mph 40.3 mph N/A   Clear
2:55 PM 66.2 °F - 37.4 °F 35% 29.72 in 10.0 mi West 35.7 mph 41.4 mph N/A   Clear
3:15 PM 66.2 °F - 35.6 °F 32% 29.72 in 10.0 mi West 35.7 mph 44.9 mph N/A   Clear
3:35 PM 66.2 °F - 37.4 °F 35% 29.73 in 10.0 mi West 31.1 mph 41.4 mph N/A   Clear
3:55 PM 66.2 °F - 35.6 °F 32% 29.73 in 10.0 mi West 28.8 mph 43.7 mph N/A   Clear
4:15 PM 66.2 °F - 35.6 °F 32% 29.74 in 10.0 mi West 32.2 mph 41.4 mph N/A   Clear
4:35 PM 66.2 °F - 33.8 °F 30% 29.74 in 10.0 mi West 32.2 mph 41.4 mph N/A   Clear
4:55 PM 66.2 °F - 35.6 °F 32% 29.74 in 10.0 mi West 34.5 mph 40.3 mph N/A   Clear
5:15 PM 66.2 °F - 35.6 °F 32% 29.76 in 10.0 mi West 24.2 mph 31.1 mph N/A   Clear
5:35 PM 64.4 °F - 35.6 °F 34% 29.76 in 10.0 mi West 28.8 mph 35.7 mph N/A   Clear
5:55 PM 64.4 °F - 35.6 °F 34% 29.77 in 10.0 mi West 26.5 mph 40.3 mph N/A   Clear
6:15 PM 64.4 °F - 35.6 °F 34% 29.78 in 10.0 mi West 18.4 mph 25.3 mph N/A   Clear
6:35 PM 62.6 °F - 37.4 °F 39% 29.79 in 10.0 mi West 12.7 mph 21.9 mph N/A   Clear
6:55 PM 62.6 °F - 37.4 °F 39% 29.79 in 10.0 mi West 11.5 mph - N/A   Clear
7:15 PM 57.2 °F - 39.2 °F 51% 29.80 in 10.0 mi West 9.2 mph - N/A   Clear
7:35 PM 57.2 °F - 39.2 °F 51% 29.80 in 10.0 mi West 9.2 mph - N/A   Clear
7:55 PM 55.4 °F - 39.2 °F 54% 29.81 in 10.0 mi West 9.2 mph - N/A   Clear
8:15 PM 55.4 °F - 39.2 °F 54% 29.82 in 10.0 mi WSW 9.2 mph - N/A   Clear
8:35 PM 50.0 °F - 37.4 °F 62% 29.83 in 10.0 mi WSW 9.2 mph - N/A   Clear
8:55 PM 50.0 °F - 37.4 °F 62% 29.83 in 10.0 mi WSW 9.2 mph - N/A   Clear
9:15 PM 50.0 °F - 39.2 °F 66% 29.83 in 10.0 mi WSW 9.2 mph - N/A   Clear
9:35 PM 48.2 °F - 37.4 °F 66% 29.83 in 10.0 mi SW 9.2 mph - N/A   Clear
9:55 PM 46.4 °F 41.5 °F 37.4 °F 71% 29.84 in 9.0 mi SW 10.4 mph - N/A   Clear
10:15 PM 48.2 °F - 37.4 °F 66% 29.85 in 10.0 mi SW 11.5 mph - N/A   Clear
10:35 PM 48.2 °F - 37.4 °F 66% 29.85 in 10.0 mi SW 11.5 mph - N/A   Clear
10:55 PM 46.4 °F 41.5 °F 37.4 °F 71% 29.86 in 10.0 mi SW 10.4 mph - N/A   Clear
11:15 PM 46.4 °F 41.9 °F 37.4 °F 71% 29.86 in 10.0 mi WSW 9.2 mph - N/A   Clear
11:35 PM 48.2 °F - 39.2 °F 71% 29.86 in 10.0 mi West 9.2 mph - N/A   Clear
11:55 PM 46.4 °F 41.5 °F 39.2 °F 76% 29.87 in 10.0 mi SW 10.4 mph - N/A   Clear